Location: NJAA Observatory
(40.6819°N, 74.8979°W)
Time: 03:30:48
(UTC-04:00)

Cosmos 2263 Rocket - Visible Passes

Search period start: 16 April 2014 00:00
Search period end: 26 April 2014 00:00
Orbit: 823 x 850 km, 71.0° (Epoch: 15 April)

Date Brightness Start Highest point End Pass type
(mag) Time Alt. Az. Time Alt. Az. Time Alt. Az.
16 Apr 4.4 01:15:38 19° NW 01:15:38 19° NW 01:18:31 10° N visible
16 Apr 4.1 23:17:10 20° NE 23:17:10 20° NE 23:18:55 10° NNE visible
17 Apr 4.3 00:58:49 21° NW 00:58:49 21° NW 01:02:02 10° N visible
17 Apr 3.9 23:00:18 22° NE 23:00:18 22° NE 23:02:16 10° NNE visible
18 Apr 4.2 00:41:57 23° NW 00:41:57 23° NW 00:45:32 10° N visible
18 Apr 3.7 22:43:19 24° NE 22:43:19 24° NE 22:45:38 10° NE visible
19 Apr 4.0 00:24:58 25° NW 00:24:58 25° NW 00:29:02 10° N visible
19 Apr 3.5 22:26:13 27° NE 22:26:13 27° NE 22:28:58 10° NE visible
20 Apr 3.9 00:07:51 27° NW 00:07:51 27° NW 00:12:31 10° N visible
20 Apr 3.2 22:08:57 31° ENE 22:08:57 31° ENE 22:12:19 10° NE visible
20 Apr 3.8 23:50:34 28° WNW 23:51:08 29° NW 23:55:59 10° N visible
21 Apr 2.8 21:51:26 35° E 21:51:26 35° E 21:55:39 10° NE visible
21 Apr 3.7 23:33:01 27° W 23:34:29 31° WNW 23:39:27 10° N visible
22 Apr 2.7 21:33:31 34° ESE 21:33:57 34° ESE 21:38:58 10° NE visible
22 Apr 3.6 23:15:04 22° WSW 23:17:50 34° WNW 23:22:55 10° N visible
23 Apr 2.8 21:14:52 22° SSE 21:17:23 31° ESE 21:22:16 10° NE visible
23 Apr 3.5 22:56:20 11° WSW 23:01:12 36° WNW 23:06:22 10° N visible
24 Apr 3.0 20:56:07 10° SSE 21:00:49 29° ESE 21:05:34 10° NE visible
24 Apr 3.4 22:39:22 10° SW 22:44:34 39° WNW 22:49:49 10° N visible
25 Apr 3.1 20:39:42 10° SSE 20:44:16 27° ESE 20:48:51 10° NE visible
25 Apr 3.3 22:22:40 10° SW 22:27:56 42° WNW 22:33:16 10° N visible
